www.pogodaiklimat.ru

Погода и климат >> Архив погоды >> Греция >> Souda


ПОГОДА в Souda

  • Прогноз погоды в Souda
  • Монитор погоды в Souda
  • Климат города

АРХИВ ПОГОДЫ в Souda

Время (UTC), дата Ветер
(напр.,м/с)
 
Видим.   Явления Облачность Т
(С)
Тd
(С)
f
(%)
Тe
(С)
Тes
(С)
Комфортность P
(гПа)
Po
(гПа)
Тmin
(С)
Tmax
(С)
R
(мм)
R24
(мм)
S
(см)
09 11.08 СЗ 6
{12}
10 км ясно +31.6 +22.3 58 +41 +47 опасность
перегрева
1011.0 993.9
12 11.08 З 5
{12}
10 км ясно +33.8 +22.6 52 +43 +52 опасность
перегрева
1011.0 994.0
15 11.08 СЗ 7
{11}
10 км ясно +33.8 +20.5 46 +41 +42 опасность
перегрева
1011.4 994.5
18 11.08 З 4
{9}
10 км ясно +28.0 +20.8 65 +35 +35 очень
душно
1011.5 994.3 +33.8
21 11.08 З 4
{6}
10 км ясно +25.6 +21.4 78 +33 +33 очень
душно
1010.9 993.5
00 12.08 З 4
{7}
10 км ясно +24.6 +21.6 83 +31 +31 очень
душно
1009.8 992.3
03 12.08 З 5
{5}
10 км ясно +24.6 +18.7 70 +29 +29 душно 1009.3 991.8
06 12.08 СЗ 5
{5}
10 км ясно +29.4 +21.1 61 +37 +40 очень
душно
1010.2 993.1 +24.4
09 12.08 СЗ 6
{10}
10 км ясно +33.6 +21.3 49 +41 +48 опасность
перегрева
1009.4 992.5
12 12.08 СЗ 8
{11}
10 км ясно +33.6 +22.0 51 +42 +46 опасность
перегрева
1008.7 991.8
15 12.08 З 6
{11}
10 км ясно +32.4 +21.2 52 +40 +42 очень
душно
1008.0 991.1
18 12.08 СЗ 5
{10}
10 км ясно +28.4 +21.9 68 +37 +37 очень
душно
1007.9 990.7 +36.6
21 12.08 З 10
{13}
10 км ясно +28.4 +21.3 65 +36 +36 очень
душно
1008.0 990.9
00 13.08 З 15
{17}
10 км ясно +27.0 +22.3 75 +35 +35 очень
душно
1007.6 990.5
03 13.08 З 15
{21}
10 км ясно +25.4 +20.9 76 +32 +32 очень
душно
1005.4 988.0
06 13.08 З 11
{20}
10 км ясно +27.0 +20.0 66 +33 +33 очень
душно
1006.0 988.9 +24.8
09 13.08 З 14
{21}
10 км ясно +29.0 +20.3 59 +35 +35 очень
душно
1006.9 989.8
12 13.08 З 14
{21}
10 км ясно +29.8 +20.2 56 +36 +36 очень
душно
1007.1 990.0
15 13.08 З 14
{21}
10 км ясно +28.2 +20.0 61 +34 +34 очень
душно
1006.5 989.3
18 13.08 З 8
{22}
10 км ясно +25.0 +20.1 74 +31 +31 очень
душно
1007.6 990.3 +30.0
21 13.08 З 8
{14}
10 км ясно +24.4 +20.1 77 +30 +30 очень
душно
1008.6 991.1
00 14.08 З 4
{11}
10 км ясно +23.0 +21.2 90 +31 +31 очень
душно
1008.7 991.3
03 14.08 СЗ 2
{6}
10 км 1/1 600 м
[Cu hum]
+21.8 +19.6 87 +27 +27 душно 1009.6 992.0
06 14.08 СВ 3
{5}
10 км ясно +27.0 +18.6 60 +32 +36 очень
душно
1010.7 993.5 +21.4
09 14.08 СВ 3
{9}
10 км 1/1 600 м
[Cu hum]
+29.2 +19.1 55 +35 +47 очень
душно
1012.2 995.0
12 14.08 С 3
{10}
10 км 1/1 600 м
[Cu hum]
+31.2 +21.5 56 +39 +52 опасность
солнечного
удара
1012.2 995.1
15 14.08 СЗ 5
{9}
10 км ясно +30.4 +21.2 58 +38 +40 очень
душно
1012.2 995.0
18 14.08 СЗ 5
{9}
10 км ясно +24.4 +20.1 77 +30 +30 очень
душно
1013.5 995.9 +31.4
21 14.08 СЗ 4
{7}
10 км ясно +23.8 +20.4 81 +29 +29 душно 1013.9 996.3
00 15.08 СЗ 3
{6}
10 км ясно +22.4 +19.6 84 +28 +28 душно 1013.1 995.5
03 15.08 СЗ 3
{6}
10 км ясно +22.2 +20.4 90 +29 +29 очень
душно
1013.1 995.5
06 15.08 СЗ 5
{7}
10 км 1/1 600 м
[Cu hum]
+25.8 +21.6 78 +33 +35 очень
душно
1013.5 996.0 +22.2
09 15.08 С 7
{14}
10 км 3/3 300 м
[Cu med, cong]
+28.0 +20.8 65 +35 +38 очень
душно
1013.8 996.5
12 15.08 С 7
{16}
10 км 1/1 600 м
[Cu med, cong]
+28.6 +19.1 56 +34 +38 очень
душно
1013.8 996.5
15 15.08 С 9
{14}
10 км ясно +28.0 +18.7 57 +33 +33 очень
душно
1013.5 996.2
18 15.08 СЗ 5
{12}
10 км ясно +25.8 +20.3 72 +32 +32 очень
душно
1013.4 995.9 +30.2
21 15.08 З 2
{6}
10 км ясно +23.4 +20.3 83 +31 +31 очень
душно
1013.1 995.6
00 16.08 штиль 0
{4}
10 км ясно +22.2 +17.7 76 +27 +27 душно 1012.0 994.5
03 16.08 З 2
{4}
10 км ясно +23.2 +19.1 78 +30 +30 очень
душно
1011.3 993.8
06 16.08 С 4
{6}
10 км ясно +27.2 +20.2 66 +34 +37 очень
душно
1011.4 994.2 +22.2
09 16.08 СЗ 8
{15}
10 км 1/1 600 м
[Cu med, cong]
+29.6 +22.0 64 +38 +41 очень
душно
1011.4 994.2
12 16.08 СЗ 8
{14}
10 км 1/1 600 м
[Cu med, cong]
+29.8 +20.9 59 +37 +39 очень
душно
1011.1 993.9
15 16.08 СЗ 7
{13}
10 км 1/1 600 м
[Cu hum]
+28.6 +20.1 60 +35 +36 очень
душно
1010.6 993.4
18 16.08 СЗ 4
{13}
10 км 1/1 600 м
[Cu hum]
+26.2 +20.8 72 +33 +33 очень
душно
1010.6 993.3 +29.8
21 16.08 СЗ 7
{8}
10 км 1/1 600 м
[Cu hum]
+25.4 +19.9 72 +31 +31 очень
душно
1010.6 993.3
00 17.08 СЗ 5
{8}
10 км 1/1 600 м
[Cu hum]
+25.0 +20.4 76 +31 +31 очень
душно
1009.8 992.5
03 17.08 З 5
{8}
10 км ясно +24.8 +19.9 74 +30 +30 душно 1009.4 991.9
06 17.08 СЗ 6
{12}
10 км 1/1 600 м
[Cu hum]
+27.4 +20.5 66 +34 +35 очень
душно
1009.6 992.5 +24.6
09 17.08 СЗ 6
{14}
10 км 8/8 750 м
[Cu Sc]
+29.4 +22.1 65 +38 +39 очень
душно
1009.9 992.9
12 17.08 С 8
{13}
10 км 5/5 750 м
[Cu Sc]
+29.0 +19.2 55 +34 +36 очень
душно
1009.8 992.7
15 17.08 СЗ 8
{14}
10 км 3/3 600 м
[Cu hum]
+28.8 +21.7 66 +37 +38 очень
душно
1010.0 992.9
18 17.08 ЮЗ 4
{11}
10 км 5/5 750 м
[Cu Sc]
+25.4 +19.6 70 +31 +31 очень
душно
1010.9 993.5 +29.4
21 17.08 СЗ 3
{6}
10 км 5/5 750 м
[Cu Sc]
+26.0 +18.9 65 +31 +31 очень
душно
1011.0 993.6
00 18.08 СЗ 4
{6}
10 км 4/1 750 м
[Cu hum Ac lent]
+25.6 +19.4 69 +31 +31 очень
душно
1010.2 992.9
03 18.08 СЗ 3
{7}
10 км 1/1 600 м
[Cu hum]
+24.4 +20.1 77 +30 +30 очень
душно
1010.0 992.6
06 18.08 С 5
{8}
10 км ясно +27.2 +19.2 62 +33 +35 очень
душно
1010.9 993.6 +24.4

 

Местоположение метеостанции Souda (Греция): широта 35.48 долгота 24.12 высота над уровнем моря 151 м.

В архиве по умолчанию представлена погода в Souda за последнюю неделю. Архивные данные за месяц целиком и за предыдущие месяцы, начиная с января 2011 года, Вы можете получить, выбрав интересующий диапазон дат из раскрывающегося списка и нажав кнопку "Ввод!".

Внимание! Время в таблицах - всемирное. Для получения местного времени необходимо прибавить поправку, которая в Souda равна 2 ч.

Смотрите также архив погоды в соседних городах и на ближайших метеорологических станциях:

Погода в Heraklion (Греция) (98 км)
Погода в Kasteli (Греция) (114 км)
Погода в Kythira (Греция) (133 км)
Погода в Milos (Греция) (141 км)
Погода в Sitia (Греция) (182 км)
Погода в Naxos (Греция) (213 км)
Погода в Kalamata (Греция) (258 км)
Погода в Methoni (Греция) (264 км)
Погода в Athens (Греция) (271 км)
Погода в El Venizelos (Греция) (272 км)

Пояснения к столбцам:

Ветер - указаны скорость ветра в м/с - средняя за 10 мин, порывы в срок и между сроками (в фигурных скобках) и направление, откуда дует ветер: С - северный, СВ - северо-восточный, В - восточный, ЮВ - юго-восточный, Ю - южный, ЮЗ - юго-западный, З - западный, СЗ - северо-западный.
Видимость - горизонтальная дальность видимости в метрах или километрах. При видимости от 1 до 10 км при отсутствии осадков обычно наблюдается дымка, при ухудшении видимости до 1 км и менее - туман. В сухую погоду видимость может ухудшаться дымом, пылью или мглою.
Явления - указаны атмосферные явления, наблюдавшиеся в срок или в последний час перед сроком; фигурными скобками обозначены явления, наблюдавшиеся между сроками (за 1-3 часа до срока); квадратными скобками обозначены град или гололедные отложения с указанием их диаметра в мм.
Облачность - указаны через наклонную черту общая и нижняя облачность в баллах и высота нижней границы облаков в метрах; квадратными скобками обозначены формы облаков: Ci - перистые, Cs - перисто-слоистые, Cc - перисто-кучевые, Ac - высококучевые, As - высокослоистые, Sc - слоисто-кучевые, Ns - слоисто-дождевые, Cu - кучевые, Cb - кучево-дождевые. Подробнее классификацию облаков см. в Атласе облаков (PDF).
T - Температура воздуха - температура, измеренная на высоте 2 м над землей.
Td - Температура точки росы - температура, при понижении до которой содержащийся в воздухе водяной пар достигнет насыщения.
f - Относительная влажность воздуха - влажноcть воздуха, измеренная на высоте 2 м над землей.
Te - Эффективная температура - температура, которую ощущает одетый по сезону человек в тени. Характеристика душности погоды. При расчете учитывается влияние влажности воздуха и скорости ветра на теплоощущения человека.
Tes - Эффективная температура на солнце - температура, которую ощущает человек, с поправкой на солнечный нагрев. Характеристика знойности погоды. Зависит от высоты солнца над горизонтом, облачности и скорости ветра. Ночью, в пасмурную погоду, а также при ветре 12 м/с и более поправка равна нулю.
P - Атмосферное давление - приведенное к уровню моря атмосферное давление.
Po - Атмосферное давление - измеренное на уровне метеостанции атмосферное давление.
Tmin - Минимальная температура - минимум температуры воздуха на высоте 2 м над землей.
Tmax - Максимальная температура - максимум температуры воздуха на высоте 2 м над землей.
R - Количество осадков - Количество выпавших осадков за период времени, мм. При наведении курсора мыши на число - период времени, за который выпало указанное количество осадков.
R24 - Количество осадков - Количество выпавших осадков за 24 часа, мм.
S - Снежный покров - Высота снежного покрова, см. При наведении курсора мыши на число - состояние снежного покрова и степень покрытия местности в баллах.